Regional Weather Roundup
Issued by NWS Upton, NY

Home | Current Version | Previous Version | Text Only | Print | Product List | Glossary On
Versions: 1 2 3 4 5 6 7 8 9 10 11 12 13 14 15 16 17 18 19 20 21 22 23 24 25 26 27 28 29 30 31 32 33 34 35 36 37 38 39 40 41 42 43 44 45 46 47 48 49 50
000
ASUS41 KOKX 250218
RWROKX

REGIONAL WEATHER ROUNDUP
NATIONAL WEATHER SERVICE NEW YORK NY
1000 PM EDT SUN MAY 24 2015

NOTE: "FAIR" INDICATES FEW OR NO CLOUDS BELOW 12,000 FEET WITH NO
SIGNIFICANT WEATHER AND/OR OBSTRUCTIONS TO VISIBILITY.

NYZ071-072-176-178-NJZ106-104-250300-
NEW YORK CITY METRO AREA


CITY           SKY/WX    TMP DP  RH WIND       PRES   REMARKS
CENTRAL PARK   CLOUDY    70  50  49 CALM      30.28R
LAGUARDIA APRT CLOUDY    69  51  52 S8        30.26R
KENNEDY INTL   CLOUDY    62  53  72 S16       30.28R
NEWARK/LIBERTY CLOUDY    72  50  45 S9        30.25R
BRNX BOT. GARD   N/A     64  52  63 SE6       30.28R
TETERBORO      CLOUDY    71  50  47 S5        30.24R
$$

NYZ177-179-078>081-250300-
LONG ISLAND NEW YORK

CITY           SKY/WX    TMP DP  RH WIND       PRES   REMARKS
FARMINGDALE    MOCLDY    61  50  67 SW12      30.29R
ISLIP          MOCLDY    61  50  67 SW9       30.28R
SHIRLEY        PTCLDY    61  50  67 SW9G18    30.30R
WESTHAMPTON    PTCLDY    58  52  80 SW8       30.31R
MONTAUK POINT    N/A     60  50  69 SW10G18   30.30R
$$

NYZ052-065-067-250300-
HUDSON VALLEY

CITY           SKY/WX    TMP DP  RH WIND       PRES   REMARKS
WHITE PLAINS   CLOUDY    63  51  65 S6        30.26R
NEWBURGH       NOT AVBL
MONTGOMERY     PTCLDY    58  51  78 CALM      30.24R
POUGHKEEPSIE   PTCLDY    59  49  69 NE3       30.23R
ALBANY         CLOUDY    67  45  45 CALM      30.20R
$$

NJZ001-105-106-008-010-013-015-019>022-104-250300-
NEW JERSEY

CITY           SKY/WX    TMP DP  RH WIND       PRES   REMARKS
NEWARK/LIBERTY CLOUDY    72  50  45 S9        30.25R
TETERBORO      CLOUDY    71  50  47 S5        30.24R
CALDWELL       CLOUDY    71  42  35 CALM      30.26R
MORRISTOWN     MOCLDY    72  41  33 W6        30.25R
SOMERVILLE     CLOUDY    62  47  57 CALM      30.24R
SUSSEX         CLOUDY    62  47  57 CALM      30.27R
ANDOVER          N/A     62  50  64 CALM      30.27R
TRENTON        MOCLDY    68  49  50 S7        30.27R
MILLVILLE      PTCLDY    62  57  83 CALM      30.30R
ATLANTIC CITY  PTCLDY    62  52  69 S8        30.31R
WRIGHTSTOWN    MOCLDY    62  50  64 S5        30.26R
TOMS RIVER     MOCLDY   N/A N/A N/A S6        30.30R
BELMAR         CLOUDY    64  46  52 SW6       30.29R
$$

PAZ047>061-062-071-250300-
EASTERN PENNSYLVANIA

CITY           SKY/WX    TMP DP  RH WIND       PRES   REMARKS
PHILADELPHIA   MOCLDY    69  54  58 S7        30.28R
ALLENTOWN      MOCLDY    71  41  33 SW5       30.26R
SCRANTON       MOCLDY    68  44  42 S3        30.25R
$$

CTZ002-004>006-009-010-012-RIZ004-006-007-MAZ004-011-015-250300-
SOUTHERN NEW ENGLAND
 IN CT

CITY           SKY/WX    TMP DP  RH WIND       PRES   REMARKS
BRADLEY INTL   MOCLDY    67  49  52 S8        30.23R
HARTFORD       MOCLDY    64  50  60 S6        30.25R
DANBURY        MOCLDY    63  49  60 W3        30.27R
WTRBRY/OXFORD  PTCLDY    61  48  63 S6        30.29R
BRIDGEPORT     MOCLDY    62  51  67 SW6       30.27R
MERIDEN        PTCLDY    63  49  60 S6        30.27R
NEW HAVEN      MOCLDY    60  50  69 SW6       30.27R
CHESTER        FAIR      59  48  67 SW8       30.28S
GROTON         CLOUDY    59  46  62 SW6       30.28R
WILLIMANTIC    CLOUDY    65  49  56 S5        30.26R

 IN RI

CITY           SKY/WX    TMP DP  RH WIND       PRES   REMARKS
PROVIDENCE     CLOUDY    63  48  58 SW12      30.26R
BLOCK ISLAND   CLOUDY    55  48  76 SW18      30.29R
WESTERLY       CLOUDY    61  47  59 SW8       30.29R

 IN MA

CITY           SKY/WX    TMP DP  RH WIND       PRES   REMARKS
BOSTON         CLOUDY    68  47  46 SW15      30.21R
WORCESTER      CLOUDY    64  45  49 SW13      30.25R
WESTFIELD      CLOUDY    67  49  52 S9        30.23
PROVINCETOWN   MOCLDY    55  48  76 SW14      30.24R
NANTUCKET      MOCLDY    57  48  72 SW15      30.29R
$$

ANZ330-335-338-340-345-350-353-355-250300-
COASTAL MARINE OBSERVATIONS


STATION/POSITION TIME  SKY/WX   TEMP    WIND        PRES    VSBY  WAVE
                                AIR SEA DIR/SP/G                  HT/PER
                 (UTC)          (F)     (DEG/KT/KT) (MB)    (MI)  (FT/S)
NY HARB ENTRANCE 0150            60 56  210/ 19/ 23 1024.7          4/ 5
4S FIRE IS       0103               54                N/A           4/ 5
20S FIRE ISLAND  0150            59 55  210/ 17/ 19 1025.6          4/ 5
GREAT SOUTH BAY  0100            60 63  240/ 17/ 21   N/A
23SW MTP         0150            56 53  230/ 14/ 17 1025.7          3/ 5
HUDSON CANYON    NOT AVBL
KINGS POINT      0100            64 58  180/  8/ 11 1023.5
CENTRAL LI SOUND 0130            59 53  210/ 16/ 17   N/A
EASTERN LI SOUND 0100            58     260/ 10/ 14   N/A
ROBBINS REEF     0100            68     170/ 15/ 16 1022.9
$$


>>>>>>>>>>>>>>>>>>>>>>>>>>>> KEY <<<<<<<<<<<<<<<<<<<<<<<<<<<
>                                                          <
>     SKY/WX - SKY CONDITION/PRESENT WEATHER               <
>     TMP    - TEMPERATURE IN FAHRENHEIT                   <
>     DP     - DEWPOINT IN FAHRENHEIT                      <
>     RH     - RELATIVE HUMIDITY IN PERCENT                <
>     WIND   - DIRECTION AND SPEED IN MPH                  <
>     PRES   - MEAN SEA LEVEL PRESSURE IN INCHES OF HG     <
>     WCI    - WIND CHILL INDEX                            <
>     VSB    - VISIBILITY IN MILES                         <
>     HX     - HEAT INDEX                                  <
>     TC     - TEMPERATURE IN CELSIUS                      <
>     VRB    - VARIABLE WIND DIRECTION                     <
>                                                          <
>>>>>>>>>>>>>>>>>>>>>>>>>>>> KEY <<<<<<<<<<<<<<<<<<<<<<<<<<<





USA.gov is the U.S. government's official web portal to all federal, state and local government web resources and services.